Theta_e
329 323 322 317 306 305 302 304 311 312 314 323 330 328 327 330 326 324 350 357 360 361 362 359 362 364 364 364 364 361 360 360 360 361 361 361 362 362 362 361 359 356 354 353 352 351 353 353 352
322 322 317 314 302 300 302 307 306 311 314 315 314 319 321 323 331 335 343 353 358 362 362 353 361 363 364 363 363 361 360 361 361 361 361 361 361 362 360 360 358 355 353 352 351 351 352 351 351
321 322 311 307 303 301 303 305 307 311 313 311 312 318 324 329 336 340 348 354 358 363 362 356 361 362 363 362 362 361 361 361 361 361 361 361 361 360 360 359 357 354 353 353 354 352 350 349 350
318 315 312 303 301 305 304 306 307 307 310 311 312 310 316 327 338 344 350 352 355 361 362 359 360 361 362 362 362 361 361 361 361 361 361 361 359 359 358 358 357 355 354 353 352 350 350 350 350
318 313 304 302 302 305 306 307 308 306 308 309 311 309 313 326 334 343 349 353 355 359 361 360 360 361 362 361 361 361 361 360 361 360 360 359 358 358 358 357 356 355 354 353 352 351 350 350 350
309 310 300 299 302 304 307 308 308 308 309 310 310 310 313 335 325 334 344 350 357 358 361 360 359 360 360 360 360 360 360 360 360 360 359 358 358 358 357 356 356 356 354 353 352 350 350 350 352
307 304 300 301 300 301 305 310 307 308 309 310 313 309 314 321 325 340 345 348 354 359 359 360 355 358 359 359 359 359 359 359 359 358 358 358 358 357 356 357 356 355 354 351 349 348 349 352 353
310 306 300 300 299 300 306 307 309 308 308 314 314 308 311 319 323 344 351 348 352 358 357 359 357 353 350 356 359 359 359 359 358 358 358 357 356 355 354 357 356 355 352 349 347 349 351 351 352
309 301 298 299 299 301 307 303 308 309 307 309 312 312 316 318 323 337 346 351 348 351 357 359 355 353 347 346 355 358 358 358 358 357 357 352 349 349 348 354 355 353 350 347 348 349 350 351 352
304 300 299 302 304 302 304 305 305 305 305 306 309 313 315 317 319 325 340 346 347 349 352 358 357 353 347 345 352 350 351 351 350 350 352 347 351 348 346 353 353 351 348 347 345 350 352 352 356
304 300 303 303 305 306 305 305 308 305 304 306 307 310 313 314 316 318 331 344 347 352 351 354 360 357 349 346 346 344 346 346 348 351 352 351 348 348 346 348 343 346 347 352 351 355 355 354 354
302 305 305 306 306 306 305 307 305 306 307 310 310 312 313 313 314 317 323 340 349 348 352 354 357 357 354 347 345 346 344 346 348 350 354 351 345 347 346 341 341 347 349 353 356 354 357 356 355
303 304 305 307 307 306 307 304 305 306 309 311 311 311 312 314 317 320 324 326 348 350 350 351 356 356 354 351 348 348 347 347 347 350 351 347 343 346 344 343 344 348 351 350 355 358 355 354 355
305 304 304 305 305 305 303 304 305 307 310 309 310 311 313 314 316 319 324 327 337 350 351 352 352 357 354 352 353 349 350 348 348 346 347 348 345 346 342 349 349 350 351 350 354 356 355 355 356
305 301 303 303 303 303 305 301 302 306 309 308 309 311 312 314 316 317 320 324 330 339 353 356 356 355 355 354 353 350 349 348 346 344 349 347 346 349 351 349 350 350 353 354 359 354 357 354 353
302 301 297 302 304 304 303 298 303 307 306 306 307 308 310 313 316 318 320 324 329 337 348 356 354 356 356 355 353 349 349 348 345 344 345 346 345 352 356 350 349 352 355 352 350 352 354 353 352
301 296 297 299 304 304 302 299 305 307 307 307 308 309 309 311 314 318 320 323 329 338 345 351 357 356 355 356 353 352 352 348 346 345 343 346 345 351 353 349 350 358 352 350 351 352 353 350 350
295 296 298 298 303 303 301 301 305 307 307 307 308 308 309 310 312 316 320 323 329 336 345 349 355 357 355 355 354 351 348 346 346 343 342 345 347 350 354 351 354 356 351 349 351 354 349 350 346
299 298 297 300 304 301 300 301 303 306 307 306 307 308 309 310 313 315 318 323 331 337 347 351 354 356 353 351 349 347 344 343 344 342 343 345 349 353 356 351 357 355 351 352 352 348 345 340 338
300 298 298 301 303 301 301 300 304 306 306 307 307 307 308 309 311 314 317 321 331 337 346 350 353 355 353 351 353 350 346 344 344 342 346 348 353 356 355 355 356 357 351 352 348 347 339 337 335
299 297 297 297 300 302 301 298 301 304 306 307 307 308 309 309 310 313 315 319 327 336 343 349 351 350 351 352 351 348 348 345 342 342 342 348 354 356 358 358 356 356 353 348 347 345 342 332 332
295 300 299 298 297 293 300 290 298 301 302 304 306 307 310 311 312 313 315 318 324 333 342 347 350 345 348 352 348 345 342 340 341 338 339 346 355 355 358 358 356 355 352 352 344 342 341 338 331
298 301 299 299 297 297 296 293 296 301 299 302 304 307 310 312 313 313 314 316 320 330 339 346 349 349 346 350 347 347 345 342 341 339 351 355 356 356 356 356 354 351 347 346 342 340 340 337 334
303 300 300 300 297 290 294 292 293 296 298 300 304 307 309 311 313 314 316 317 319 326 339 343 347 346 343 349 348 348 349 344 340 340 346 348 352 352 353 351 349 347 344 341 338 338 338 336 334
300 297 291 290 290 289 295 292 295 300 302 303 303 306 310 311 312 313 315 316 317 323 337 343 345 344 341 343 348 348 351 347 346 349 346 350 348 347 348 348 344 339 338 338 338 336 334 332 329
298 296 290 282 286 289 296 289 295 302 304 305 306 308 309 311 313 314 315 316 319 321 333 340 342 341 340 341 343 348 348 345 344 350 346 348 347 347 347 344 339 337 335 334 335 332 329 333 330
297 293 298 292 293 288 292 296 301 302 302 303 305 307 308 310 312 313 315 316 318 323 331 340 339 341 337 339 343 347 349 347 342 350 356 350 351 346 343 339 337 333 332 333 333 328 330 330 329
300 301 292 293 284 284 289 291 292 298 299 303 304 305 308 310 312 313 315 316 319 324 330 337 342 339 340 341 343 346 346 347 349 352 351 351 348 341 338 336 333 331 331 331 331 329 329 327 323
295 294 293 294 291 285 285 289 300 300 302 302 305 307 308 309 311 312 314 317 319 323 329 336 339 342 344 345 341 346 346 345 350 351 349 346 341 337 334 332 330 327 329 330 330 329 326 324 323
301 298 296 289 288 291 290 288 301 303 304 305 306 307 309 310 311 312 314 316 319 327 329 334 337 340 344 345 342 345 347 346 347 346 343 340 335 335 332 330 329 327 327 330 328 324 323 322 318
Wind_Speed
12 5 5 6 8 7 13 9 7 7 7 5 3 3 4 8 5 6 4 5 15 20 21 21 18 17 16 15 17 21 19 19 17 17 18 18 17 16 15 15 13 11 9 8 7 6 6 4 3
4 5 6 3 9 12 11 10 11 9 7 5 5 7 11 10 7 7 4 6 13 16 17 20 17 18 17 15 17 20 19 18 17 17 17 18 17 16 15 15 14 12 10 8 7 5 4 3 3
7 7 6 6 10 14 11 7 10 3 4 3 5 4 6 5 6 10 9 7 11 16 16 16 15 16 16 16 16 19 21 17 15 15 15 15 16 14 14 13 13 12 10 8 7 4 3 2 4
6 6 5 11 13 9 9 2 1 7 8 4 4 9 2 11 8 9 4 2 10 15 17 19 16 16 15 18 16 17 17 18 15 13 13 13 14 14 13 12 11 11 10 7 5 3 3 4 5
6 4 10 13 15 6 5 4 5 7 4 7 2 12 5 6 8 10 4 3 8 14 16 18 16 14 14 16 16 16 17 17 15 15 13 13 13 13 12 12 11 11 9 7 5 2 3 5 7
7 6 10 14 15 6 10 5 8 11 8 9 9 10 9 6 10 16 4 4 6 12 15 18 16 16 16 13 13 15 17 17 16 15 14 13 12 12 11 11 11 9 7 4 3 1 4 5 7
11 8 13 13 8 6 10 3 10 8 11 10 8 13 6 5 16 16 2 5 10 12 13 14 17 17 16 14 13 14 13 16 16 15 15 13 13 11 10 10 10 9 5 3 1 2 4 5 6
5 6 8 9 9 11 3 4 1 7 11 10 13 9 9 13 16 12 5 5 10 14 14 15 15 17 16 16 15 15 14 14 13 14 13 12 12 10 9 9 8 7 3 0 2 4 5 4 4
4 7 9 6 7 1 2 8 6 3 12 17 17 17 16 18 14 5 5 7 9 10 15 16 16 16 16 16 15 16 17 16 14 14 13 12 9 11 11 10 9 6 2 1 3 5 3 3 6
7 7 5 5 6 6 7 11 10 9 11 13 18 18 15 11 11 11 3 5 8 10 14 16 17 16 16 13 16 15 14 12 12 12 12 9 8 7 5 8 7 5 3 3 1 0 4 10 3
2 8 4 7 8 8 9 15 13 12 13 10 15 18 16 15 13 13 6 5 10 9 8 10 11 14 16 13 12 9 9 9 9 12 11 7 7 7 7 6 7 7 7 7 8 8 4 6 6
9 4 9 12 10 13 14 16 18 16 16 11 16 18 16 15 14 12 8 5 11 11 9 8 8 12 12 11 11 11 9 9 8 10 11 8 6 7 6 5 5 5 5 3 4 3 3 3 3
9 4 7 12 15 17 15 18 19 20 15 15 13 16 15 10 10 10 6 5 7 13 13 7 13 14 12 11 10 10 10 10 10 10 11 9 8 7 7 5 6 4 4 4 4 2 2 2 1
5 10 13 11 11 10 14 15 12 14 9 11 14 14 14 10 10 8 7 6 7 11 13 17 10 17 14 13 12 10 9 10 10 9 10 10 8 7 7 7 6 5 5 4 4 2 1 1 1
10 13 10 7 4 10 8 20 16 3 7 10 11 12 15 15 11 12 10 8 9 10 14 17 20 15 18 16 14 11 10 10 9 9 11 11 10 9 7 6 5 5 5 5 2 4 2 2 2
10 7 9 7 9 9 8 16 8 7 8 12 14 15 16 19 17 12 12 11 9 12 14 17 16 21 20 17 14 11 11 9 9 8 10 12 11 11 8 6 5 5 5 4 3 3 2 2 2
9 8 12 11 3 12 11 14 10 6 14 18 16 15 15 18 19 15 14 12 11 12 13 15 17 20 19 17 13 13 14 10 9 9 8 11 11 11 7 6 5 6 5 4 4 3 2 3 2
14 16 15 16 15 14 21 24 20 18 19 16 18 16 17 18 21 17 14 10 11 12 13 15 13 18 15 14 13 11 12 11 10 9 9 13 10 11 8 7 7 8 6 6 4 2 3 2 3
13 15 18 18 17 20 22 24 20 18 18 17 18 18 17 19 19 17 15 10 11 12 14 15 16 19 13 14 15 14 14 12 10 10 12 13 11 11 9 8 8 8 7 5 6 5 5 4 4
15 19 18 16 13 14 21 24 21 20 21 19 19 18 16 18 18 18 16 12 12 14 15 16 18 20 15 12 12 13 13 13 11 11 11 13 12 10 10 8 8 8 6 6 7 7 5 4 6
14 14 14 17 16 18 18 24 13 9 11 13 14 16 16 18 19 19 15 14 13 14 15 16 17 17 15 14 12 10 11 11 11 9 9 11 12 11 10 10 7 8 7 7 7 8 8 5 6
13 10 14 17 15 12 10 15 14 15 9 9 13 10 11 14 14 17 15 14 12 14 15 17 18 15 15 16 15 15 13 12 10 12 11 12 14 12 11 10 8 8 6 5 7 7 7 6 7
15 15 17 19 18 17 13 13 13 16 14 15 7 6 8 9 12 15 15 13 13 14 15 16 18 19 15 16 14 13 12 12 11 10 13 12 12 12 11 10 10 8 6 6 7 8 7 6 4
11 16 19 16 9 9 3 9 13 9 6 7 7 8 8 12 12 13 12 12 12 13 15 17 19 19 16 17 14 15 16 14 12 13 10 11 11 10 11 10 9 7 6 8 7 7 7 5 4
5 15 9 6 9 8 8 10 14 14 13 12 12 12 12 13 12 11 11 12 13 14 17 17 19 18 13 15 15 18 18 16 17 16 16 15 12 11 12 11 9 8 8 8 8 7 7 6 5
17 8 8 9 11 17 19 10 9 9 12 12 5 12 12 13 11 13 13 10 14 15 17 19 20 19 14 17 18 16 17 14 13 15 14 12 12 12 14 11 10 10 10 9 9 8 7 8 7
4 7 6 13 18 14 12 15 16 6 9 7 11 8 11 9 11 13 14 11 10 15 18 21 17 18 13 14 16 18 17 16 16 17 12 11 12 11 12 12 12 11 11 11 10 8 9 9 7
11 8 5 4 8 12 10 17 11 11 7 9 9 8 10 10 13 13 15 12 11 15 15 20 21 20 18 22 22 19 21 16 15 16 16 14 12 13 14 13 13 13 12 12 10 10 10 10 6
6 6 5 5 7 8 13 9 8 11 13 10 10 12 11 14 16 16 16 14 16 13 17 20 21 22 24 24 21 21 19 20 17 15 16 14 14 15 14 14 14 14 13 12 11 10 12 10 8
10 12 7 4 7 8 10 13 10 18 12 12 12 14 18 20 18 19 18 15 16 12 17 19 20 21 21 24 16 18 18 18 15 17 16 16 14 13 15 15 14 15 14 13 13 12 13 10 8
Wind_Direction
266 254 236 224 231 239 246 235 280 226 197 45 15 255 288 331 281 355 107 179 174 165 162 165 163 156 160 157 154 146 151 154 159 156 150 143 138 136 134 129 128 130 128 120 112 109 101 84 55
290 206 215 234 250 225 232 223 221 244 43 290 259 264 256 278 312 295 222 183 173 167 165 167 159 156 154 161 159 146 150 151 156 156 150 141 137 137 133 132 134 132 128 123 116 110 91 61 357
238 232 232 231 236 248 259 149 247 157 252 293 265 288 311 352 14 353 20 173 179 168 163 157 158 155 157 159 162 150 145 147 153 153 146 140 135 132 130 133 132 133 129 126 119 106 75 30 325
194 194 221 245 233 241 281 128 287 248 228 216 320 259 248 47 5 351 344 209 186 176 168 138 158 154 161 159 163 147 145 141 145 142 136 133 129 127 129 132 130 127 126 122 107 70 30 346 328
213 249 239 238 244 250 244 256 274 265 275 253 346 257 277 81 49 30 12 260 197 177 170 157 153 155 159 160 157 147 142 139 140 136 133 131 126 127 131 131 128 126 129 121 104 50 349 331 333
208 282 237 239 234 201 257 225 264 269 273 276 258 297 264 126 3 343 357 204 195 169 173 156 152 155 156 161 158 148 143 141 139 136 131 132 128 130 134 131 129 127 123 117 96 7 329 332 333
268 238 258 276 275 234 254 37 248 273 275 264 350 280 283 225 3 337 35 194 176 169 178 168 165 160 150 157 156 145 146 142 140 136 132 136 131 132 136 131 129 126 128 119 52 329 317 335 348
274 270 258 245 258 252 152 277 70 259 281 334 280 261 235 358 337 349 3 209 185 177 186 178 177 171 168 162 157 150 147 139 135 128 128 132 126 135 141 142 132 124 130 21 325 313 312 343 31
259 248 254 250 251 121 236 295 286 269 284 281 279 276 293 305 300 336 357 310 202 194 186 186 180 175 172 166 158 149 148 140 137 133 136 156 159 172 169 86 126 136 158 291 324 328 288 176 131
263 266 313 358 302 293 307 287 302 285 264 274 280 273 282 285 304 303 234 181 263 203 201 191 189 180 175 163 162 169 159 170 175 171 171 190 146 164 177 129 150 154 205 238 270 81 182 210 190
181 285 359 271 281 298 291 284 282 277 265 261 288 291 294 302 295 284 272 227 196 211 219 230 190 176 184 171 174 169 166 166 171 170 179 167 169 161 184 161 174 171 195 202 191 184 221 24 330
274 248 284 294 303 289 283 292 282 273 274 281 277 285 293 291 278 282 291 199 185 186 205 195 197 177 196 168 182 168 173 167 173 173 177 158 181 178 175 191 162 189 180 148 224 155 38 357 343
253 307 289 284 282 280 286 273 274 278 275 270 261 275 279 295 282 274 263 270 216 181 171 206 170 179 186 172 182 177 173 175 173 166 177 168 172 183 186 171 194 187 162 190 205 153 14 31 55
355 295 285 282 284 283 275 277 275 264 256 260 264 269 275 273 284 285 263 240 232 202 186 172 195 173 178 192 177 172 173 170 172 172 170 167 174 172 181 176 189 188 206 201 224 125 10 17 86
287 284 282 214 294 287 303 269 244 267 251 264 264 271 278 277 271 279 275 249 238 228 209 186 168 183 180 187 178 177 177 168 172 175 166 173 175 174 198 190 190 185 189 199 160 185 147 169 191
260 276 271 147 271 283 259 282 184 210 256 289 286 284 278 278 276 269 275 274 252 235 211 202 187 177 182 184 181 175 171 175 172 168 168 177 176 174 193 186 184 169 189 197 195 213 185 191 193
168 298 310 304 286 284 256 298 310 295 258 287 279 277 279 281 276 263 265 267 239 229 218 207 201 185 179 179 183 177 165 181 174 172 173 176 178 182 201 191 169 176 186 194 197 189 223 160 202
319 304 301 297 296 267 274 277 281 278 271 269 279 276 276 274 272 272 260 258 250 230 218 204 209 185 181 176 176 182 169 177 177 179 180 175 181 187 196 187 170 198 188 187 198 161 179 219 173
290 283 287 289 295 283 280 278 279 278 271 268 270 269 262 265 271 273 263 245 236 228 213 203 194 184 175 182 184 181 179 174 178 181 177 178 187 185 190 191 181 207 202 209 164 168 167 163 148
287 287 289 301 305 281 278 280 283 276 273 265 268 271 262 259 265 265 250 228 231 223 209 207 191 188 188 190 194 188 179 169 178 177 177 184 185 180 191 199 184 202 182 164 168 172 173 183 175
288 290 301 304 305 269 269 279 267 281 255 266 263 264 266 268 270 265 251 231 228 220 206 208 194 184 191 196 186 182 167 170 178 171 172 185 185 183 198 193 196 180 219 173 177 180 202 179 185
301 347 292 294 299 310 329 295 303 302 297 239 266 262 275 276 269 257 254 240 226 223 207 199 186 179 192 192 176 177 169 171 177 173 179 179 187 184 185 187 180 193 208 162 174 189 194 226 184
305 314 296 289 287 294 280 263 294 282 244 263 229 258 288 296 279 270 262 240 236 217 204 190 191 187 180 186 187 176 171 167 175 177 165 181 178 180 175 177 173 176 201 164 167 177 204 194 231
304 295 291 264 266 263 39 301 296 310 317 310 258 284 300 310 298 277 272 254 233 233 190 195 184 191 176 179 197 190 180 163 177 179 157 181 169 170 171 172 169 165 156 161 164 175 186 237 227
267 326 295 237 218 290 35 284 285 295 287 264 270 293 304 308 302 298 285 275 230 222 193 201 191 195 178 144 217 194 192 174 180 174 181 173 170 171 167 168 161 161 155 155 148 160 152 156 143
302 291 291 310 314 314 307 275 280 328 285 287 248 268 280 299 314 315 305 293 281 211 209 196 192 193 183 148 213 212 192 180 185 189 178 178 176 175 155 163 158 154 148 148 140 154 151 130 124
21 259 319 287 271 274 260 262 270 311 295 250 248 269 297 309 315 319 315 302 283 256 203 192 198 198 184 153 208 211 199 184 192 179 176 177 174 148 162 159 150 150 144 144 145 138 136 119 126
235 313 267 223 279 301 310 305 286 288 243 248 225 275 299 311 315 318 316 317 303 271 214 204 188 190 196 182 200 200 196 189 190 165 172 170 154 155 156 156 149 152 145 148 150 147 133 121 135
230 241 226 301 280 281 302 316 343 297 300 285 292 297 307 310 316 315 313 314 305 266 232 197 199 195 195 196 197 195 194 191 181 152 165 158 151 152 156 151 157 144 153 153 147 137 131 131 129
278 284 252 256 294 262 295 290 0 347 318 310 298 299 315 317 308 309 310 314 310 275 234 193 208 199 200 196 189 191 185 183 161 152 151 152 152 157 155 156 156 154 155 154 146 151 131 138 140